Index of /20260412/WXO-DD/model_gdps/15km/12/186
Name Last modified Size Description
Parent Directory -
20260412T12Z_MSC_GDPS_AbsoluteVorticity_IsbL-0200_LatLon0.15_PT186H.grib2 2026-04-12 17:00 1.5M
20260412T12Z_MSC_GDPS_AbsoluteVorticity_IsbL-0250_LatLon0.15_PT186H.grib2 2026-04-12 17:00 1.6M
20260412T12Z_MSC_GDPS_AbsoluteVorticity_IsbL-0500_LatLon0.15_PT186H.grib2 2026-04-12 17:00 1.4M
20260412T12Z_MSC_GDPS_AbsoluteVorticity_IsbL-0700_LatLon0.15_PT186H.grib2 2026-04-12 17:00 1.3M
20260412T12Z_MSC_GDPS_AbsoluteVorticity_IsbL-0850_LatLon0.15_PT186H.grib2 2026-04-12 17:00 1.6M
20260412T12Z_MSC_GDPS_AirTemp-Max_AGL-2m_LatLon0.15_PT186H.grib2 2026-04-12 17:00 749K
20260412T12Z_MSC_GDPS_AirTemp-Min_AGL-2m_LatLon0.15_PT186H.grib2 2026-04-12 17:00 910K
20260412T12Z_MSC_GDPS_AirTemp_AGL-120m_LatLon0.15_PT186H.grib2 2026-04-12 17:00 907K
20260412T12Z_MSC_GDPS_AirTemp_AGL-2m_LatLon0.15_PT186H.grib2 2026-04-12 17:00 1.0M
20260412T12Z_MSC_GDPS_AirTemp_AGL-40m_LatLon0.15_PT186H.grib2 2026-04-12 17:00 928K
20260412T12Z_MSC_GDPS_AirTemp_AGL-80m_LatLon0.15_PT186H.grib2 2026-04-12 17:00 918K
20260412T12Z_MSC_GDPS_AirTemp_IsbL-0001_LatLon0.15_PT186H.grib2 2026-04-12 17:00 703K
20260412T12Z_MSC_GDPS_AirTemp_IsbL-0005_LatLon0.15_PT186H.grib2 2026-04-12 17:00 745K
20260412T12Z_MSC_GDPS_AirTemp_IsbL-0010_LatLon0.15_PT186H.grib2 2026-04-12 17:00 752K
20260412T12Z_MSC_GDPS_AirTemp_IsbL-0020_LatLon0.15_PT186H.grib2 2026-04-12 17:00 694K
20260412T12Z_MSC_GDPS_AirTemp_IsbL-0030_LatLon0.15_PT186H.grib2 2026-04-12 17:00 747K
20260412T12Z_MSC_GDPS_AirTemp_IsbL-0050_LatLon0.15_PT186H.grib2 2026-04-12 17:00 808K
20260412T12Z_MSC_GDPS_AirTemp_IsbL-0100_LatLon0.15_PT186H.grib2 2026-04-12 17:00 944K
20260412T12Z_MSC_GDPS_AirTemp_IsbL-0150_LatLon0.15_PT186H.grib2 2026-04-12 17:00 962K
20260412T12Z_MSC_GDPS_AirTemp_IsbL-0175_LatLon0.15_PT186H.grib2 2026-04-12 17:00 953K
20260412T12Z_MSC_GDPS_AirTemp_IsbL-0200_LatLon0.15_PT186H.grib2 2026-04-12 17:00 963K
20260412T12Z_MSC_GDPS_AirTemp_IsbL-0225_LatLon0.15_PT186H.grib2 2026-04-12 17:00 966K
20260412T12Z_MSC_GDPS_AirTemp_IsbL-0250_LatLon0.15_PT186H.grib2 2026-04-12 17:00 1.0M
20260412T12Z_MSC_GDPS_AirTemp_IsbL-0275_LatLon0.15_PT186H.grib2 2026-04-12 17:00 1.0M
20260412T12Z_MSC_GDPS_AirTemp_IsbL-0300_LatLon0.15_PT186H.grib2 2026-04-12 17:00 1.0M
20260412T12Z_MSC_GDPS_AirTemp_IsbL-0350_LatLon0.15_PT186H.grib2 2026-04-12 17:00 1.0M
20260412T12Z_MSC_GDPS_AirTemp_IsbL-0400_LatLon0.15_PT186H.grib2 2026-04-12 17:00 929K
20260412T12Z_MSC_GDPS_AirTemp_IsbL-0450_LatLon0.15_PT186H.grib2 2026-04-12 17:00 950K
20260412T12Z_MSC_GDPS_AirTemp_IsbL-0500_LatLon0.15_PT186H.grib2 2026-04-12 17:00 1.0M
20260412T12Z_MSC_GDPS_AirTemp_IsbL-0550_LatLon0.15_PT186H.grib2 2026-04-12 17:00 1.0M
20260412T12Z_MSC_GDPS_AirTemp_IsbL-0600_LatLon0.15_PT186H.grib2 2026-04-12 17:00 886K
20260412T12Z_MSC_GDPS_AirTemp_IsbL-0650_LatLon0.15_PT186H.grib2 2026-04-12 17:00 916K
20260412T12Z_MSC_GDPS_AirTemp_IsbL-0700_LatLon0.15_PT186H.grib2 2026-04-12 17:00 948K
20260412T12Z_MSC_GDPS_AirTemp_IsbL-0750_LatLon0.15_PT186H.grib2 2026-04-12 17:00 1.0M
20260412T12Z_MSC_GDPS_AirTemp_IsbL-0800_LatLon0.15_PT186H.grib2 2026-04-12 17:00 1.1M
20260412T12Z_MSC_GDPS_AirTemp_IsbL-0850_LatLon0.15_PT186H.grib2 2026-04-12 17:00 1.1M
20260412T12Z_MSC_GDPS_AirTemp_IsbL-0875_LatLon0.15_PT186H.grib2 2026-04-12 17:00 1.2M
20260412T12Z_MSC_GDPS_AirTemp_IsbL-0900_LatLon0.15_PT186H.grib2 2026-04-12 17:00 1.2M
20260412T12Z_MSC_GDPS_AirTemp_IsbL-0925_LatLon0.15_PT186H.grib2 2026-04-12 17:00 1.1M
20260412T12Z_MSC_GDPS_AirTemp_IsbL-0950_LatLon0.15_PT186H.grib2 2026-04-12 17:00 1.1M
20260412T12Z_MSC_GDPS_AirTemp_IsbL-0970_LatLon0.15_PT186H.grib2 2026-04-12 17:00 1.1M
20260412T12Z_MSC_GDPS_AirTemp_IsbL-0985_LatLon0.15_PT186H.grib2 2026-04-12 17:00 1.1M
20260412T12Z_MSC_GDPS_AirTemp_IsbL-1000_LatLon0.15_PT186H.grib2 2026-04-12 17:00 1.1M
20260412T12Z_MSC_GDPS_AirTemp_IsbL-1015_LatLon0.15_PT186H.grib2 2026-04-12 17:00 1.1M
20260412T12Z_MSC_GDPS_Albedo_Sfc_LatLon0.15_PT186H.grib2 2026-04-12 17:00 247K
20260412T12Z_MSC_GDPS_CAPE_Sfc_LatLon0.15_PT186H.grib2 2026-04-12 17:00 3.8M
20260412T12Z_MSC_GDPS_CIN_Sfc_LatLon0.15_PT186H.grib2 2026-04-12 17:00 2.9M
20260412T12Z_MSC_GDPS_CloudWater_EAtm_LatLon0.15_PT186H.grib2 2026-04-12 17:00 531K
20260412T12Z_MSC_GDPS_ConvectivePrecip-Accum_Sfc_LatLon0.15_PT186H.grib2 2026-04-12 17:00 3.8M
20260412T12Z_MSC_GDPS_DewPointDepression_AGL-2m_LatLon0.15_PT186H.grib2 2026-04-12 17:00 754K
20260412T12Z_MSC_GDPS_DewPointDepression_IsbL-0010_LatLon0.15_PT186H.grib2 2026-04-12 17:00 5.6K
20260412T12Z_MSC_GDPS_DewPointDepression_IsbL-0020_LatLon0.15_PT186H.grib2 2026-04-12 17:00 58K
20260412T12Z_MSC_GDPS_DewPointDepression_IsbL-0030_LatLon0.15_PT186H.grib2 2026-04-12 17:00 72K
20260412T12Z_MSC_GDPS_DewPointDepression_IsbL-0050_LatLon0.15_PT186H.grib2 2026-04-12 17:00 328K
20260412T12Z_MSC_GDPS_DewPointDepression_IsbL-0100_LatLon0.15_PT186H.grib2 2026-04-12 17:00 377K
20260412T12Z_MSC_GDPS_DewPointDepression_IsbL-0150_LatLon0.15_PT186H.grib2 2026-04-12 17:00 456K
20260412T12Z_MSC_GDPS_DewPointDepression_IsbL-0175_LatLon0.15_PT186H.grib2 2026-04-12 17:00 535K
20260412T12Z_MSC_GDPS_DewPointDepression_IsbL-0200_LatLon0.15_PT186H.grib2 2026-04-12 17:00 615K
20260412T12Z_MSC_GDPS_DewPointDepression_IsbL-0225_LatLon0.15_PT186H.grib2 2026-04-12 17:00 765K
20260412T12Z_MSC_GDPS_DewPointDepression_IsbL-0250_LatLon0.15_PT186H.grib2 2026-04-12 17:00 864K
20260412T12Z_MSC_GDPS_DewPointDepression_IsbL-0275_LatLon0.15_PT186H.grib2 2026-04-12 17:00 875K
20260412T12Z_MSC_GDPS_DewPointDepression_IsbL-0300_LatLon0.15_PT186H.grib2 2026-04-12 17:00 915K
20260412T12Z_MSC_GDPS_DewPointDepression_IsbL-0350_LatLon0.15_PT186H.grib2 2026-04-12 17:00 946K
20260412T12Z_MSC_GDPS_DewPointDepression_IsbL-0400_LatLon0.15_PT186H.grib2 2026-04-12 17:00 1.0M
20260412T12Z_MSC_GDPS_DewPointDepression_IsbL-0450_LatLon0.15_PT186H.grib2 2026-04-12 17:00 1.0M
20260412T12Z_MSC_GDPS_DewPointDepression_IsbL-0500_LatLon0.15_PT186H.grib2 2026-04-12 17:00 1.0M
20260412T12Z_MSC_GDPS_DewPointDepression_IsbL-0550_LatLon0.15_PT186H.grib2 2026-04-12 17:00 1.0M
20260412T12Z_MSC_GDPS_DewPointDepression_IsbL-0600_LatLon0.15_PT186H.grib2 2026-04-12 17:00 1.1M
20260412T12Z_MSC_GDPS_DewPointDepression_IsbL-0650_LatLon0.15_PT186H.grib2 2026-04-12 17:00 1.1M
20260412T12Z_MSC_GDPS_DewPointDepression_IsbL-0700_LatLon0.15_PT186H.grib2 2026-04-12 17:00 1.1M
20260412T12Z_MSC_GDPS_DewPointDepression_IsbL-0750_LatLon0.15_PT186H.grib2 2026-04-12 17:00 1.1M
20260412T12Z_MSC_GDPS_DewPointDepression_IsbL-0800_LatLon0.15_PT186H.grib2 2026-04-12 17:00 1.2M
20260412T12Z_MSC_GDPS_DewPointDepression_IsbL-0850_LatLon0.15_PT186H.grib2 2026-04-12 17:00 1.2M
20260412T12Z_MSC_GDPS_DewPointDepression_IsbL-0875_LatLon0.15_PT186H.grib2 2026-04-12 17:00 1.1M
20260412T12Z_MSC_GDPS_DewPointDepression_IsbL-0900_LatLon0.15_PT186H.grib2 2026-04-12 17:00 1.1M
20260412T12Z_MSC_GDPS_DewPointDepression_IsbL-0925_LatLon0.15_PT186H.grib2 2026-04-12 17:00 1.0M
20260412T12Z_MSC_GDPS_DewPointDepression_IsbL-0950_LatLon0.15_PT186H.grib2 2026-04-12 17:00 1.0M
20260412T12Z_MSC_GDPS_DewPointDepression_IsbL-0970_LatLon0.15_PT186H.grib2 2026-04-12 17:00 1.0M
20260412T12Z_MSC_GDPS_DewPointDepression_IsbL-0985_LatLon0.15_PT186H.grib2 2026-04-12 17:00 1.0M
20260412T12Z_MSC_GDPS_DewPointDepression_IsbL-1000_LatLon0.15_PT186H.grib2 2026-04-12 17:00 1.0M
20260412T12Z_MSC_GDPS_DewPointDepression_IsbL-1015_LatLon0.15_PT186H.grib2 2026-04-12 17:00 909K
20260412T12Z_MSC_GDPS_DewPoint_AGL-2m_LatLon0.15_PT186H.grib2 2026-04-12 17:00 611K
20260412T12Z_MSC_GDPS_DownwardLongwaveRadiationFlux-Accum_Sfc_LatLon0.15_PT186H.grib2 2026-04-12 17:00 657K
20260412T12Z_MSC_GDPS_DownwardShortwaveRadiationFlux-Accum_NTAtm_LatLon0.15_PT186H.grib2 2026-04-12 17:00 265K
20260412T12Z_MSC_GDPS_DownwardShortwaveRadiationFlux-Accum_Sfc_LatLon0.15_PT186H.grib2 2026-04-12 17:00 864K
20260412T12Z_MSC_GDPS_FreezingRain-Accum12h_Sfc_LatLon0.15_PT186H.grib2 2026-04-12 17:00 101K
20260412T12Z_MSC_GDPS_FreezingRain-Accum24h_Sfc_LatLon0.15_PT186H.grib2 2026-04-12 17:00 154K
20260412T12Z_MSC_GDPS_FreezingRain-Accum6h_Sfc_LatLon0.15_PT186H.grib2 2026-04-12 17:00 76K
20260412T12Z_MSC_GDPS_FreezingRain-Accum_Sfc_LatLon0.15_PT186H.grib2 2026-04-12 17:00 336K
20260412T12Z_MSC_GDPS_GeopotentialHeight_IsbL-0001_LatLon0.15_PT186H.grib2 2026-04-12 17:00 518K
20260412T12Z_MSC_GDPS_GeopotentialHeight_IsbL-0005_LatLon0.15_PT186H.grib2 2026-04-12 17:00 498K
20260412T12Z_MSC_GDPS_GeopotentialHeight_IsbL-0010_LatLon0.15_PT186H.grib2 2026-04-12 17:00 428K
20260412T12Z_MSC_GDPS_GeopotentialHeight_IsbL-0020_LatLon0.15_PT186H.grib2 2026-04-12 17:00 571K
20260412T12Z_MSC_GDPS_GeopotentialHeight_IsbL-0030_LatLon0.15_PT186H.grib2 2026-04-12 17:00 577K
20260412T12Z_MSC_GDPS_GeopotentialHeight_IsbL-0050_LatLon0.15_PT186H.grib2 2026-04-12 17:00 577K
20260412T12Z_MSC_GDPS_GeopotentialHeight_IsbL-0100_LatLon0.15_PT186H.grib2 2026-04-12 17:00 614K
20260412T12Z_MSC_GDPS_GeopotentialHeight_IsbL-0150_LatLon0.15_PT186H.grib2 2026-04-12 17:00 630K
20260412T12Z_MSC_GDPS_GeopotentialHeight_IsbL-0175_LatLon0.15_PT186H.grib2 2026-04-12 17:00 633K
20260412T12Z_MSC_GDPS_GeopotentialHeight_IsbL-0200_LatLon0.15_PT186H.grib2 2026-04-12 17:00 636K
20260412T12Z_MSC_GDPS_GeopotentialHeight_IsbL-0225_LatLon0.15_PT186H.grib2 2026-04-12 17:00 635K
20260412T12Z_MSC_GDPS_GeopotentialHeight_IsbL-0250_LatLon0.15_PT186H.grib2 2026-04-12 17:00 638K
20260412T12Z_MSC_GDPS_GeopotentialHeight_IsbL-0275_LatLon0.15_PT186H.grib2 2026-04-12 17:00 636K
20260412T12Z_MSC_GDPS_GeopotentialHeight_IsbL-0300_LatLon0.15_PT186H.grib2 2026-04-12 17:00 636K
20260412T12Z_MSC_GDPS_GeopotentialHeight_IsbL-0350_LatLon0.15_PT186H.grib2 2026-04-12 17:00 626K
20260412T12Z_MSC_GDPS_GeopotentialHeight_IsbL-0400_LatLon0.15_PT186H.grib2 2026-04-12 17:00 550K
20260412T12Z_MSC_GDPS_GeopotentialHeight_IsbL-0450_LatLon0.15_PT186H.grib2 2026-04-12 17:00 538K
20260412T12Z_MSC_GDPS_GeopotentialHeight_IsbL-0500_LatLon0.15_PT186H.grib2 2026-04-12 17:00 698K
20260412T12Z_MSC_GDPS_GeopotentialHeight_IsbL-0550_LatLon0.15_PT186H.grib2 2026-04-12 17:00 689K
20260412T12Z_MSC_GDPS_GeopotentialHeight_IsbL-0600_LatLon0.15_PT186H.grib2 2026-04-12 17:00 680K
20260412T12Z_MSC_GDPS_GeopotentialHeight_IsbL-0650_LatLon0.15_PT186H.grib2 2026-04-12 17:00 681K
20260412T12Z_MSC_GDPS_GeopotentialHeight_IsbL-0700_LatLon0.15_PT186H.grib2 2026-04-12 17:00 678K
20260412T12Z_MSC_GDPS_GeopotentialHeight_IsbL-0750_LatLon0.15_PT186H.grib2 2026-04-12 17:00 682K
20260412T12Z_MSC_GDPS_GeopotentialHeight_IsbL-0800_LatLon0.15_PT186H.grib2 2026-04-12 17:00 698K
20260412T12Z_MSC_GDPS_GeopotentialHeight_IsbL-0850_LatLon0.15_PT186H.grib2 2026-04-12 17:00 703K
20260412T12Z_MSC_GDPS_GeopotentialHeight_IsbL-0875_LatLon0.15_PT186H.grib2 2026-04-12 17:00 708K
20260412T12Z_MSC_GDPS_GeopotentialHeight_IsbL-0900_LatLon0.15_PT186H.grib2 2026-04-12 17:00 716K
20260412T12Z_MSC_GDPS_GeopotentialHeight_IsbL-0925_LatLon0.15_PT186H.grib2 2026-04-12 17:00 725K
20260412T12Z_MSC_GDPS_GeopotentialHeight_IsbL-0950_LatLon0.15_PT186H.grib2 2026-04-12 17:00 732K
20260412T12Z_MSC_GDPS_GeopotentialHeight_IsbL-0970_LatLon0.15_PT186H.grib2 2026-04-12 17:00 743K
20260412T12Z_MSC_GDPS_GeopotentialHeight_IsbL-0985_LatLon0.15_PT186H.grib2 2026-04-12 17:00 759K
20260412T12Z_MSC_GDPS_GeopotentialHeight_IsbL-1000_LatLon0.15_PT186H.grib2 2026-04-12 17:00 780K
20260412T12Z_MSC_GDPS_GeopotentialHeight_IsbL-1015_LatLon0.15_PT186H.grib2 2026-04-12 17:00 805K
20260412T12Z_MSC_GDPS_Humidex_Sfc_LatLon0.15_PT186H.grib2 2026-04-12 17:00 5.3M
20260412T12Z_MSC_GDPS_IcePellets-Accum12h_Sfc_LatLon0.15_PT186H.grib2 2026-04-12 17:00 40K
20260412T12Z_MSC_GDPS_IcePellets-Accum24h_Sfc_LatLon0.15_PT186H.grib2 2026-04-12 17:00 65K
20260412T12Z_MSC_GDPS_IcePellets-Accum6h_Sfc_LatLon0.15_PT186H.grib2 2026-04-12 17:00 29K
20260412T12Z_MSC_GDPS_IcePellets-Accum_Sfc_LatLon0.15_PT186H.grib2 2026-04-12 17:00 221K
20260412T12Z_MSC_GDPS_KIndex_Sfc_LatLon0.15_PT186H.grib2 2026-04-12 17:00 6.5M
20260412T12Z_MSC_GDPS_LatentHeatNetFlux_Sfc_LatLon0.15_PT186H.grib2 2026-04-12 17:00 526K
20260412T12Z_MSC_GDPS_LiftedIndex-MU-VT_IsbL-0500_LatLon0.15_PT186H.grib2 2026-04-12 17:00 5.4M
20260412T12Z_MSC_GDPS_NetLongwaveRadiationFlux-Accum_Sfc_LatLon0.15_PT186H.grib2 2026-04-12 17:00 875K
20260412T12Z_MSC_GDPS_NetShortwaveRadiationFlux-Accum_Sfc_LatLon0.15_PT186H.grib2 2026-04-12 17:00 867K
20260412T12Z_MSC_GDPS_O3MixingRatio_LatLon0.15_PT186H.grib2 2026-04-12 17:07 2.3M
20260412T12Z_MSC_GDPS_O3_EAtm_LatLon0.15_PT186H.grib2 2026-04-12 17:07 2.4M
20260412T12Z_MSC_GDPS_PlanetaryBoundaryLayerHeight_Sfc_LatLon0.15_PT186H.grib2 2026-04-12 17:00 2.5M
20260412T12Z_MSC_GDPS_Precip-Accum12h_Sfc_LatLon0.15_PT186H.grib2 2026-04-12 17:00 4.0M
20260412T12Z_MSC_GDPS_Precip-Accum24h_Sfc_LatLon0.15_PT186H.grib2 2026-04-12 17:00 4.6M
20260412T12Z_MSC_GDPS_Precip-Accum6h_Sfc_LatLon0.15_PT186H.grib2 2026-04-12 17:00 3.9M
20260412T12Z_MSC_GDPS_Precip-Accum_Sfc_LatLon0.15_PT186H.grib2 2026-04-12 17:00 5.0M
20260412T12Z_MSC_GDPS_PrecipRate_Sfc_LatLon0.15_PT186H.grib2 2026-04-12 17:00 3.0M
20260412T12Z_MSC_GDPS_PrecipType-Instant_Sfc_LatLon0.15_PT186H.grib2 2026-04-12 17:00 1.5M
20260412T12Z_MSC_GDPS_Pressure_MSL_LatLon0.15_PT186H.grib2 2026-04-12 17:00 714K
20260412T12Z_MSC_GDPS_Pressure_PVU-1.5_LatLon0.15_PT186H.grib2 2026-04-12 17:00 5.7M
20260412T12Z_MSC_GDPS_Pressure_PVU-1_LatLon0.15_PT186H.grib2 2026-04-12 17:00 6.0M
20260412T12Z_MSC_GDPS_Pressure_PVU-2_LatLon0.15_PT186H.grib2 2026-04-12 17:00 6.0M
20260412T12Z_MSC_GDPS_Pressure_Sfc_LatLon0.15_PT186H.grib2 2026-04-12 17:00 1.1M
20260412T12Z_MSC_GDPS_RadiativeTemp_Sfc_LatLon0.15_PT186H.grib2 2026-04-12 17:00 676K
20260412T12Z_MSC_GDPS_Rain-Accum12h_Sfc_LatLon0.15_PT186H.grib2 2026-04-12 17:00 2.6M
20260412T12Z_MSC_GDPS_Rain-Accum24h_Sfc_LatLon0.15_PT186H.grib2 2026-04-12 17:00 3.1M
20260412T12Z_MSC_GDPS_Rain-Accum6h_Sfc_LatLon0.15_PT186H.grib2 2026-04-12 17:00 2.4M
20260412T12Z_MSC_GDPS_Rain-Accum_Sfc_LatLon0.15_PT186H.grib2 2026-04-12 17:00 4.1M
20260412T12Z_MSC_GDPS_RelativeHumidity_AGL-2m_LatLon0.15_PT186H.grib2 2026-04-12 17:00 1.0M
20260412T12Z_MSC_GDPS_RelativeHumidity_IsbL-0010_LatLon0.15_PT186H.grib2 2026-04-12 17:00 216K
20260412T12Z_MSC_GDPS_RelativeHumidity_IsbL-0020_LatLon0.15_PT186H.grib2 2026-04-12 17:00 354K
20260412T12Z_MSC_GDPS_RelativeHumidity_IsbL-0030_LatLon0.15_PT186H.grib2 2026-04-12 17:00 412K
20260412T12Z_MSC_GDPS_RelativeHumidity_IsbL-0050_LatLon0.15_PT186H.grib2 2026-04-12 17:00 406K
20260412T12Z_MSC_GDPS_RelativeHumidity_IsbL-0100_LatLon0.15_PT186H.grib2 2026-04-12 17:00 472K
20260412T12Z_MSC_GDPS_RelativeHumidity_IsbL-0150_LatLon0.15_PT186H.grib2 2026-04-12 17:00 660K
20260412T12Z_MSC_GDPS_RelativeHumidity_IsbL-0175_LatLon0.15_PT186H.grib2 2026-04-12 17:00 782K
20260412T12Z_MSC_GDPS_RelativeHumidity_IsbL-0200_LatLon0.15_PT186H.grib2 2026-04-12 17:00 687K
20260412T12Z_MSC_GDPS_RelativeHumidity_IsbL-0225_LatLon0.15_PT186H.grib2 2026-04-12 17:00 778K
20260412T12Z_MSC_GDPS_RelativeHumidity_IsbL-0250_LatLon0.15_PT186H.grib2 2026-04-12 17:00 871K
20260412T12Z_MSC_GDPS_RelativeHumidity_IsbL-0275_LatLon0.15_PT186H.grib2 2026-04-12 17:00 892K
20260412T12Z_MSC_GDPS_RelativeHumidity_IsbL-0300_LatLon0.15_PT186H.grib2 2026-04-12 17:00 936K
20260412T12Z_MSC_GDPS_RelativeHumidity_IsbL-0350_LatLon0.15_PT186H.grib2 2026-04-12 17:00 953K
20260412T12Z_MSC_GDPS_RelativeHumidity_IsbL-0400_LatLon0.15_PT186H.grib2 2026-04-12 17:00 1.0M
20260412T12Z_MSC_GDPS_RelativeHumidity_IsbL-0450_LatLon0.15_PT186H.grib2 2026-04-12 17:00 1.0M
20260412T12Z_MSC_GDPS_RelativeHumidity_IsbL-0500_LatLon0.15_PT186H.grib2 2026-04-12 17:00 1.0M
20260412T12Z_MSC_GDPS_RelativeHumidity_IsbL-0550_LatLon0.15_PT186H.grib2 2026-04-12 17:00 1.0M
20260412T12Z_MSC_GDPS_RelativeHumidity_IsbL-0600_LatLon0.15_PT186H.grib2 2026-04-12 17:00 1.1M
20260412T12Z_MSC_GDPS_RelativeHumidity_IsbL-0650_LatLon0.15_PT186H.grib2 2026-04-12 17:00 1.1M
20260412T12Z_MSC_GDPS_RelativeHumidity_IsbL-0700_LatLon0.15_PT186H.grib2 2026-04-12 17:00 1.1M
20260412T12Z_MSC_GDPS_RelativeHumidity_IsbL-0750_LatLon0.15_PT186H.grib2 2026-04-12 17:00 1.1M
20260412T12Z_MSC_GDPS_RelativeHumidity_IsbL-0800_LatLon0.15_PT186H.grib2 2026-04-12 17:00 1.2M
20260412T12Z_MSC_GDPS_RelativeHumidity_IsbL-0850_LatLon0.15_PT186H.grib2 2026-04-12 17:00 1.3M
20260412T12Z_MSC_GDPS_RelativeHumidity_IsbL-0875_LatLon0.15_PT186H.grib2 2026-04-12 17:00 1.3M
20260412T12Z_MSC_GDPS_RelativeHumidity_IsbL-0900_LatLon0.15_PT186H.grib2 2026-04-12 17:00 1.2M
20260412T12Z_MSC_GDPS_RelativeHumidity_IsbL-0925_LatLon0.15_PT186H.grib2 2026-04-12 17:00 1.2M
20260412T12Z_MSC_GDPS_RelativeHumidity_IsbL-0950_LatLon0.15_PT186H.grib2 2026-04-12 17:00 1.2M
20260412T12Z_MSC_GDPS_RelativeHumidity_IsbL-0970_LatLon0.15_PT186H.grib2 2026-04-12 17:00 1.2M
20260412T12Z_MSC_GDPS_RelativeHumidity_IsbL-0985_LatLon0.15_PT186H.grib2 2026-04-12 17:00 1.2M
20260412T12Z_MSC_GDPS_RelativeHumidity_IsbL-1000_LatLon0.15_PT186H.grib2 2026-04-12 17:00 1.1M
20260412T12Z_MSC_GDPS_RelativeHumidity_IsbL-1015_LatLon0.15_PT186H.grib2 2026-04-12 17:00 1.0M
20260412T12Z_MSC_GDPS_RelativeVorticity_IsbL-0200_LatLon0.15_PT186H.grib2 2026-04-12 17:00 1.5M
20260412T12Z_MSC_GDPS_RelativeVorticity_IsbL-0250_LatLon0.15_PT186H.grib2 2026-04-12 17:00 1.5M
20260412T12Z_MSC_GDPS_RelativeVorticity_IsbL-0500_LatLon0.15_PT186H.grib2 2026-04-12 17:00 1.4M
20260412T12Z_MSC_GDPS_RelativeVorticity_IsbL-0700_LatLon0.15_PT186H.grib2 2026-04-12 17:00 1.3M
20260412T12Z_MSC_GDPS_RelativeVorticity_IsbL-0850_LatLon0.15_PT186H.grib2 2026-04-12 17:00 1.6M
20260412T12Z_MSC_GDPS_Runoff-Accum_Sfc_LatLon0.15_PT186H.grib2 2026-04-12 17:00 105K
20260412T12Z_MSC_GDPS_SensibleHeatNetFlux_Sfc_LatLon0.15_PT186H.grib2 2026-04-12 17:00 471K
20260412T12Z_MSC_GDPS_ShowalterIndex_IsbL-0500_LatLon0.15_PT186H.grib2 2026-04-12 17:00 6.2M
20260412T12Z_MSC_GDPS_Snow-Accum12h_Sfc_LatLon0.15_PT186H.grib2 2026-04-12 17:00 1.4M
20260412T12Z_MSC_GDPS_Snow-Accum24h_Sfc_LatLon0.15_PT186H.grib2 2026-04-12 17:00 1.6M
20260412T12Z_MSC_GDPS_Snow-Accum6h_Sfc_LatLon0.15_PT186H.grib2 2026-04-12 17:00 1.4M
20260412T12Z_MSC_GDPS_Snow-Accum_Sfc_LatLon0.15_PT186H.grib2 2026-04-12 17:00 2.1M
20260412T12Z_MSC_GDPS_SnowDensity_Sfc_LatLon0.15_PT186H.grib2 2026-04-12 17:00 271K
20260412T12Z_MSC_GDPS_SnowDepth_Sfc_LatLon0.15_PT186H.grib2 2026-04-12 17:00 1.8M
20260412T12Z_MSC_GDPS_SoilTemp_DBS-0to10cm_LatLon0.15_PT186H.grib2 2026-04-12 17:00 509K
20260412T12Z_MSC_GDPS_SoilTemp_Sfc_LatLon0.15_PT186H.grib2 2026-04-12 17:00 579K
20260412T12Z_MSC_GDPS_SoilVolumetricIceContent_Sfc_LatLon0.15_PT186H.grib2 2026-04-12 17:00 223K
20260412T12Z_MSC_GDPS_SoilVolumetricWaterContent_DBS-0to10cm_LatLon0.15_PT186H.grib2 2026-04-12 17:00 553K
20260412T12Z_MSC_GDPS_SoilVolumetricWaterContent_DBS-0to1cm_LatLon0.15_PT186H.grib2 2026-04-12 17:00 653K
20260412T12Z_MSC_GDPS_SpecificHumidity_AGL-120m_LatLon0.15_PT186H.grib2 2026-04-12 17:00 1.1M
20260412T12Z_MSC_GDPS_SpecificHumidity_AGL-2m_LatLon0.15_PT186H.grib2 2026-04-12 17:00 1.2M
20260412T12Z_MSC_GDPS_SpecificHumidity_AGL-40m_LatLon0.15_PT186H.grib2 2026-04-12 17:00 1.1M
20260412T12Z_MSC_GDPS_SpecificHumidity_AGL-80m_LatLon0.15_PT186H.grib2 2026-04-12 17:00 1.1M
20260412T12Z_MSC_GDPS_SpecificHumidity_IsbL-0001_LatLon0.15_PT186H.grib2 2026-04-12 17:00 1.0M
20260412T12Z_MSC_GDPS_SpecificHumidity_IsbL-0005_LatLon0.15_PT186H.grib2 2026-04-12 17:00 1.0M
20260412T12Z_MSC_GDPS_SpecificHumidity_IsbL-0010_LatLon0.15_PT186H.grib2 2026-04-12 17:00 1.1M
20260412T12Z_MSC_GDPS_SpecificHumidity_IsbL-0020_LatLon0.15_PT186H.grib2 2026-04-12 17:00 1.5M
20260412T12Z_MSC_GDPS_SpecificHumidity_IsbL-0030_LatLon0.15_PT186H.grib2 2026-04-12 17:00 1.5M
20260412T12Z_MSC_GDPS_SpecificHumidity_IsbL-0050_LatLon0.15_PT186H.grib2 2026-04-12 17:00 1.2M
20260412T12Z_MSC_GDPS_SpecificHumidity_IsbL-0100_LatLon0.15_PT186H.grib2 2026-04-12 17:00 1.2M
20260412T12Z_MSC_GDPS_SpecificHumidity_IsbL-0150_LatLon0.15_PT186H.grib2 2026-04-12 17:00 1.3M
20260412T12Z_MSC_GDPS_SpecificHumidity_IsbL-0175_LatLon0.15_PT186H.grib2 2026-04-12 17:00 1.3M
20260412T12Z_MSC_GDPS_SpecificHumidity_IsbL-0200_LatLon0.15_PT186H.grib2 2026-04-12 17:00 1.3M
20260412T12Z_MSC_GDPS_SpecificHumidity_IsbL-0225_LatLon0.15_PT186H.grib2 2026-04-12 17:00 1.3M
20260412T12Z_MSC_GDPS_SpecificHumidity_IsbL-0250_LatLon0.15_PT186H.grib2 2026-04-12 17:00 1.5M
20260412T12Z_MSC_GDPS_SpecificHumidity_IsbL-0275_LatLon0.15_PT186H.grib2 2026-04-12 17:00 1.3M
20260412T12Z_MSC_GDPS_SpecificHumidity_IsbL-0300_LatLon0.15_PT186H.grib2 2026-04-12 17:00 1.5M
20260412T12Z_MSC_GDPS_SpecificHumidity_IsbL-0350_LatLon0.15_PT186H.grib2 2026-04-12 17:00 1.5M
20260412T12Z_MSC_GDPS_SpecificHumidity_IsbL-0400_LatLon0.15_PT186H.grib2 2026-04-12 17:00 1.5M
20260412T12Z_MSC_GDPS_SpecificHumidity_IsbL-0450_LatLon0.15_PT186H.grib2 2026-04-12 17:00 1.6M
20260412T12Z_MSC_GDPS_SpecificHumidity_IsbL-0500_LatLon0.15_PT186H.grib2 2026-04-12 17:00 1.4M
20260412T12Z_MSC_GDPS_SpecificHumidity_IsbL-0550_LatLon0.15_PT186H.grib2 2026-04-12 17:00 1.6M
20260412T12Z_MSC_GDPS_SpecificHumidity_IsbL-0600_LatLon0.15_PT186H.grib2 2026-04-12 17:00 1.7M
20260412T12Z_MSC_GDPS_SpecificHumidity_IsbL-0650_LatLon0.15_PT186H.grib2 2026-04-12 17:00 1.5M
20260412T12Z_MSC_GDPS_SpecificHumidity_IsbL-0700_LatLon0.15_PT186H.grib2 2026-04-12 17:00 1.6M
20260412T12Z_MSC_GDPS_SpecificHumidity_IsbL-0750_LatLon0.15_PT186H.grib2 2026-04-12 17:00 1.7M
20260412T12Z_MSC_GDPS_SpecificHumidity_IsbL-0800_LatLon0.15_PT186H.grib2 2026-04-12 17:00 1.9M
20260412T12Z_MSC_GDPS_SpecificHumidity_IsbL-0850_LatLon0.15_PT186H.grib2 2026-04-12 17:00 1.9M
20260412T12Z_MSC_GDPS_SpecificHumidity_IsbL-0875_LatLon0.15_PT186H.grib2 2026-04-12 17:00 1.9M
20260412T12Z_MSC_GDPS_SpecificHumidity_IsbL-0900_LatLon0.15_PT186H.grib2 2026-04-12 17:00 1.9M
20260412T12Z_MSC_GDPS_SpecificHumidity_IsbL-0925_LatLon0.15_PT186H.grib2 2026-04-12 17:00 1.6M
20260412T12Z_MSC_GDPS_SpecificHumidity_IsbL-0950_LatLon0.15_PT186H.grib2 2026-04-12 17:00 1.5M
20260412T12Z_MSC_GDPS_SpecificHumidity_IsbL-0970_LatLon0.15_PT186H.grib2 2026-04-12 17:00 1.5M
20260412T12Z_MSC_GDPS_SpecificHumidity_IsbL-0985_LatLon0.15_PT186H.grib2 2026-04-12 17:00 1.5M
20260412T12Z_MSC_GDPS_SpecificHumidity_IsbL-1000_LatLon0.15_PT186H.grib2 2026-04-12 17:00 1.5M
20260412T12Z_MSC_GDPS_SpecificHumidity_IsbL-1015_LatLon0.15_PT186H.grib2 2026-04-12 17:00 1.4M
20260412T12Z_MSC_GDPS_SpecificHumidity_Sfc_LatLon0.15_PT186H.grib2 2026-04-12 17:00 664K
20260412T12Z_MSC_GDPS_Thickness_IsbL-0850to0700_LatLon0.15_PT186H.grib2 2026-04-12 17:00 465K
20260412T12Z_MSC_GDPS_Thickness_IsbL-1000to0500_LatLon0.15_PT186H.grib2 2026-04-12 17:00 371K
20260412T12Z_MSC_GDPS_Thickness_IsbL-1000to0850_LatLon0.15_PT186H.grib2 2026-04-12 17:00 489K
20260412T12Z_MSC_GDPS_TotalCloudCover_Sfc_LatLon0.15_PT186H.grib2 2026-04-12 17:00 823K
20260412T12Z_MSC_GDPS_TotalTotalsIndex_Sfc_LatLon0.15_PT186H.grib2 2026-04-12 17:00 6.2M
20260412T12Z_MSC_GDPS_UVIndex-ClearSky_Sfc_LatLon0.15_PT186H.grib2 2026-04-12 17:07 1.0M
20260412T12Z_MSC_GDPS_UVIndex_Sfc_LatLon0.15_PT186H.grib2 2026-04-12 17:07 1.4M
20260412T12Z_MSC_GDPS_UpwardLongwaveRadiationFlux_NTAtm_LatLon0.15_PT186H.grib2 2026-04-12 17:00 826K
20260412T12Z_MSC_GDPS_VerticalVelocity_IsbL-0200_LatLon0.15_PT186H.grib2 2026-04-12 17:00 1.1M
20260412T12Z_MSC_GDPS_VerticalVelocity_IsbL-0250_LatLon0.15_PT186H.grib2 2026-04-12 17:00 1.0M
20260412T12Z_MSC_GDPS_VerticalVelocity_IsbL-0500_LatLon0.15_PT186H.grib2 2026-04-12 17:00 1.3M
20260412T12Z_MSC_GDPS_VerticalVelocity_IsbL-0600_LatLon0.15_PT186H.grib2 2026-04-12 17:00 1.3M
20260412T12Z_MSC_GDPS_VerticalVelocity_IsbL-0700_LatLon0.15_PT186H.grib2 2026-04-12 17:00 1.4M
20260412T12Z_MSC_GDPS_VerticalVelocity_IsbL-0850_LatLon0.15_PT186H.grib2 2026-04-12 17:00 1.3M
20260412T12Z_MSC_GDPS_WindChill_Sfc_LatLon0.15_PT186H.grib2 2026-04-12 17:00 5.4M
20260412T12Z_MSC_GDPS_WindDir_AGL-10m_LatLon0.15_PT186H.grib2 2026-04-12 17:00 1.4M
20260412T12Z_MSC_GDPS_WindDir_AGL-120m_LatLon0.15_PT186H.grib2 2026-04-12 17:00 1.4M
20260412T12Z_MSC_GDPS_WindDir_AGL-40m_LatLon0.15_PT186H.grib2 2026-04-12 17:00 1.4M
20260412T12Z_MSC_GDPS_WindDir_AGL-80m_LatLon0.15_PT186H.grib2 2026-04-12 17:00 1.4M
20260412T12Z_MSC_GDPS_WindDir_IsbL-0001_LatLon0.15_PT186H.grib2 2026-04-12 17:00 645K
20260412T12Z_MSC_GDPS_WindDir_IsbL-0005_LatLon0.15_PT186H.grib2 2026-04-12 17:00 809K
20260412T12Z_MSC_GDPS_WindDir_IsbL-0010_LatLon0.15_PT186H.grib2 2026-04-12 17:00 867K
20260412T12Z_MSC_GDPS_WindDir_IsbL-0020_LatLon0.15_PT186H.grib2 2026-04-12 17:00 920K
20260412T12Z_MSC_GDPS_WindDir_IsbL-0030_LatLon0.15_PT186H.grib2 2026-04-12 17:00 895K
20260412T12Z_MSC_GDPS_WindDir_IsbL-0050_LatLon0.15_PT186H.grib2 2026-04-12 17:00 943K
20260412T12Z_MSC_GDPS_WindDir_IsbL-0100_LatLon0.15_PT186H.grib2 2026-04-12 17:00 1.0M
20260412T12Z_MSC_GDPS_WindDir_IsbL-0150_LatLon0.15_PT186H.grib2 2026-04-12 17:00 1.0M
20260412T12Z_MSC_GDPS_WindDir_IsbL-0175_LatLon0.15_PT186H.grib2 2026-04-12 17:00 1.0M
20260412T12Z_MSC_GDPS_WindDir_IsbL-0200_LatLon0.15_PT186H.grib2 2026-04-12 17:00 1.1M
20260412T12Z_MSC_GDPS_WindDir_IsbL-0225_LatLon0.15_PT186H.grib2 2026-04-12 17:00 1.1M
20260412T12Z_MSC_GDPS_WindDir_IsbL-0250_LatLon0.15_PT186H.grib2 2026-04-12 17:00 1.1M
20260412T12Z_MSC_GDPS_WindDir_IsbL-0275_LatLon0.15_PT186H.grib2 2026-04-12 17:00 1.2M
20260412T12Z_MSC_GDPS_WindDir_IsbL-0300_LatLon0.15_PT186H.grib2 2026-04-12 17:00 1.2M
20260412T12Z_MSC_GDPS_WindDir_IsbL-0350_LatLon0.15_PT186H.grib2 2026-04-12 17:00 1.2M
20260412T12Z_MSC_GDPS_WindDir_IsbL-0400_LatLon0.15_PT186H.grib2 2026-04-12 17:00 1.2M
20260412T12Z_MSC_GDPS_WindDir_IsbL-0450_LatLon0.15_PT186H.grib2 2026-04-12 17:00 1.3M
20260412T12Z_MSC_GDPS_WindDir_IsbL-0500_LatLon0.15_PT186H.grib2 2026-04-12 17:00 1.3M
20260412T12Z_MSC_GDPS_WindDir_IsbL-0550_LatLon0.15_PT186H.grib2 2026-04-12 17:00 1.4M
20260412T12Z_MSC_GDPS_WindDir_IsbL-0600_LatLon0.15_PT186H.grib2 2026-04-12 17:00 1.4M
20260412T12Z_MSC_GDPS_WindDir_IsbL-0650_LatLon0.15_PT186H.grib2 2026-04-12 17:00 1.5M
20260412T12Z_MSC_GDPS_WindDir_IsbL-0700_LatLon0.15_PT186H.grib2 2026-04-12 17:00 1.6M
20260412T12Z_MSC_GDPS_WindDir_IsbL-0750_LatLon0.15_PT186H.grib2 2026-04-12 17:00 1.7M
20260412T12Z_MSC_GDPS_WindDir_IsbL-0800_LatLon0.15_PT186H.grib2 2026-04-12 17:00 1.8M
20260412T12Z_MSC_GDPS_WindDir_IsbL-0850_LatLon0.15_PT186H.grib2 2026-04-12 17:00 2.0M
20260412T12Z_MSC_GDPS_WindDir_IsbL-0875_LatLon0.15_PT186H.grib2 2026-04-12 17:00 2.0M
20260412T12Z_MSC_GDPS_WindDir_IsbL-0900_LatLon0.15_PT186H.grib2 2026-04-12 17:00 2.0M
20260412T12Z_MSC_GDPS_WindDir_IsbL-0925_LatLon0.15_PT186H.grib2 2026-04-12 17:00 2.0M
20260412T12Z_MSC_GDPS_WindDir_IsbL-0950_LatLon0.15_PT186H.grib2 2026-04-12 17:00 2.0M
20260412T12Z_MSC_GDPS_WindDir_IsbL-0970_LatLon0.15_PT186H.grib2 2026-04-12 17:00 2.0M
20260412T12Z_MSC_GDPS_WindDir_IsbL-0985_LatLon0.15_PT186H.grib2 2026-04-12 17:00 2.1M
20260412T12Z_MSC_GDPS_WindDir_IsbL-1000_LatLon0.15_PT186H.grib2 2026-04-12 17:00 2.1M
20260412T12Z_MSC_GDPS_WindDir_IsbL-1015_LatLon0.15_PT186H.grib2 2026-04-12 17:00 2.1M
20260412T12Z_MSC_GDPS_WindGust-Max_AGL-10m_LatLon0.15_PT186H.grib2 2026-04-12 17:00 2.3M
20260412T12Z_MSC_GDPS_WindGust-Min_AGL-10m_LatLon0.15_PT186H.grib2 2026-04-12 17:00 2.2M
20260412T12Z_MSC_GDPS_WindGust_AGL-10m_LatLon0.15_PT186H.grib2 2026-04-12 17:00 2.2M
20260412T12Z_MSC_GDPS_WindSpeed_AGL-10m_LatLon0.15_PT186H.grib2 2026-04-12 17:00 1.1M
20260412T12Z_MSC_GDPS_WindSpeed_AGL-120m_LatLon0.15_PT186H.grib2 2026-04-12 17:00 1.2M
20260412T12Z_MSC_GDPS_WindSpeed_AGL-40m_LatLon0.15_PT186H.grib2 2026-04-12 17:00 1.2M
20260412T12Z_MSC_GDPS_WindSpeed_AGL-80m_LatLon0.15_PT186H.grib2 2026-04-12 17:00 1.2M
20260412T12Z_MSC_GDPS_WindSpeed_IsbL-0001_LatLon0.15_PT186H.grib2 2026-04-12 17:00 633K
20260412T12Z_MSC_GDPS_WindSpeed_IsbL-0005_LatLon0.15_PT186H.grib2 2026-04-12 17:00 603K
20260412T12Z_MSC_GDPS_WindSpeed_IsbL-0010_LatLon0.15_PT186H.grib2 2026-04-12 17:00 621K
20260412T12Z_MSC_GDPS_WindSpeed_IsbL-0020_LatLon0.15_PT186H.grib2 2026-04-12 17:00 848K
20260412T12Z_MSC_GDPS_WindSpeed_IsbL-0030_LatLon0.15_PT186H.grib2 2026-04-12 17:00 850K
20260412T12Z_MSC_GDPS_WindSpeed_IsbL-0050_LatLon0.15_PT186H.grib2 2026-04-12 17:00 1.0M
20260412T12Z_MSC_GDPS_WindSpeed_IsbL-0100_LatLon0.15_PT186H.grib2 2026-04-12 17:00 1.1M
20260412T12Z_MSC_GDPS_WindSpeed_IsbL-0150_LatLon0.15_PT186H.grib2 2026-04-12 17:00 923K
20260412T12Z_MSC_GDPS_WindSpeed_IsbL-0175_LatLon0.15_PT186H.grib2 2026-04-12 17:00 1.0M
20260412T12Z_MSC_GDPS_WindSpeed_IsbL-0200_LatLon0.15_PT186H.grib2 2026-04-12 17:00 1.0M
20260412T12Z_MSC_GDPS_WindSpeed_IsbL-0225_LatLon0.15_PT186H.grib2 2026-04-12 17:00 1.1M
20260412T12Z_MSC_GDPS_WindSpeed_IsbL-0250_LatLon0.15_PT186H.grib2 2026-04-12 17:00 1.1M
20260412T12Z_MSC_GDPS_WindSpeed_IsbL-0275_LatLon0.15_PT186H.grib2 2026-04-12 17:00 1.1M
20260412T12Z_MSC_GDPS_WindSpeed_IsbL-0300_LatLon0.15_PT186H.grib2 2026-04-12 17:00 1.1M
20260412T12Z_MSC_GDPS_WindSpeed_IsbL-0350_LatLon0.15_PT186H.grib2 2026-04-12 17:00 1.1M
20260412T12Z_MSC_GDPS_WindSpeed_IsbL-0400_LatLon0.15_PT186H.grib2 2026-04-12 17:00 1.1M
20260412T12Z_MSC_GDPS_WindSpeed_IsbL-0450_LatLon0.15_PT186H.grib2 2026-04-12 17:00 1.1M
20260412T12Z_MSC_GDPS_WindSpeed_IsbL-0500_LatLon0.15_PT186H.grib2 2026-04-12 17:00 1.1M
20260412T12Z_MSC_GDPS_WindSpeed_IsbL-0550_LatLon0.15_PT186H.grib2 2026-04-12 17:00 1.1M
20260412T12Z_MSC_GDPS_WindSpeed_IsbL-0600_LatLon0.15_PT186H.grib2 2026-04-12 17:00 1.1M
20260412T12Z_MSC_GDPS_WindSpeed_IsbL-0650_LatLon0.15_PT186H.grib2 2026-04-12 17:00 1.4M
20260412T12Z_MSC_GDPS_WindSpeed_IsbL-0700_LatLon0.15_PT186H.grib2 2026-04-12 17:00 1.5M
20260412T12Z_MSC_GDPS_WindSpeed_IsbL-0750_LatLon0.15_PT186H.grib2 2026-04-12 17:00 1.5M
20260412T12Z_MSC_GDPS_WindSpeed_IsbL-0800_LatLon0.15_PT186H.grib2 2026-04-12 17:00 1.6M
20260412T12Z_MSC_GDPS_WindSpeed_IsbL-0850_LatLon0.15_PT186H.grib2 2026-04-12 17:00 1.7M
20260412T12Z_MSC_GDPS_WindSpeed_IsbL-0875_LatLon0.15_PT186H.grib2 2026-04-12 17:00 1.8M
20260412T12Z_MSC_GDPS_WindSpeed_IsbL-0900_LatLon0.15_PT186H.grib2 2026-04-12 17:00 1.9M
20260412T12Z_MSC_GDPS_WindSpeed_IsbL-0925_LatLon0.15_PT186H.grib2 2026-04-12 17:00 1.9M
20260412T12Z_MSC_GDPS_WindSpeed_IsbL-0950_LatLon0.15_PT186H.grib2 2026-04-12 17:00 1.9M
20260412T12Z_MSC_GDPS_WindSpeed_IsbL-0970_LatLon0.15_PT186H.grib2 2026-04-12 17:00 1.9M
20260412T12Z_MSC_GDPS_WindSpeed_IsbL-0985_LatLon0.15_PT186H.grib2 2026-04-12 17:00 1.8M
20260412T12Z_MSC_GDPS_WindSpeed_IsbL-1000_LatLon0.15_PT186H.grib2 2026-04-12 17:00 1.8M
20260412T12Z_MSC_GDPS_WindSpeed_IsbL-1015_LatLon0.15_PT186H.grib2 2026-04-12 17:00 1.8M
20260412T12Z_MSC_GDPS_WindU_AGL-10m_LatLon0.15_PT186H.grib2 2026-04-12 17:00 1.6M
20260412T12Z_MSC_GDPS_WindU_AGL-120m_LatLon0.15_PT186H.grib2 2026-04-12 17:00 968K
20260412T12Z_MSC_GDPS_WindU_AGL-40m_LatLon0.15_PT186H.grib2 2026-04-12 17:00 964K
20260412T12Z_MSC_GDPS_WindU_AGL-80m_LatLon0.15_PT186H.grib2 2026-04-12 17:00 968K
20260412T12Z_MSC_GDPS_WindU_IsbL-0001_LatLon0.15_PT186H.grib2 2026-04-12 17:00 635K
20260412T12Z_MSC_GDPS_WindU_IsbL-0005_LatLon0.15_PT186H.grib2 2026-04-12 17:00 682K
20260412T12Z_MSC_GDPS_WindU_IsbL-0010_LatLon0.15_PT186H.grib2 2026-04-12 17:00 694K
20260412T12Z_MSC_GDPS_WindU_IsbL-0020_LatLon0.15_PT186H.grib2 2026-04-12 17:00 730K
20260412T12Z_MSC_GDPS_WindU_IsbL-0030_LatLon0.15_PT186H.grib2 2026-04-12 17:00 730K
20260412T12Z_MSC_GDPS_WindU_IsbL-0050_LatLon0.15_PT186H.grib2 2026-04-12 17:00 696K
20260412T12Z_MSC_GDPS_WindU_IsbL-0100_LatLon0.15_PT186H.grib2 2026-04-12 17:00 848K
20260412T12Z_MSC_GDPS_WindU_IsbL-0150_LatLon0.15_PT186H.grib2 2026-04-12 17:00 1.0M
20260412T12Z_MSC_GDPS_WindU_IsbL-0175_LatLon0.15_PT186H.grib2 2026-04-12 17:00 1.0M
20260412T12Z_MSC_GDPS_WindU_IsbL-0200_LatLon0.15_PT186H.grib2 2026-04-12 17:00 1.0M
20260412T12Z_MSC_GDPS_WindU_IsbL-0225_LatLon0.15_PT186H.grib2 2026-04-12 17:00 1.1M
20260412T12Z_MSC_GDPS_WindU_IsbL-0250_LatLon0.15_PT186H.grib2 2026-04-12 17:00 1.1M
20260412T12Z_MSC_GDPS_WindU_IsbL-0275_LatLon0.15_PT186H.grib2 2026-04-12 17:00 1.1M
20260412T12Z_MSC_GDPS_WindU_IsbL-0300_LatLon0.15_PT186H.grib2 2026-04-12 17:00 863K
20260412T12Z_MSC_GDPS_WindU_IsbL-0350_LatLon0.15_PT186H.grib2 2026-04-12 17:00 878K
20260412T12Z_MSC_GDPS_WindU_IsbL-0400_LatLon0.15_PT186H.grib2 2026-04-12 17:00 875K
20260412T12Z_MSC_GDPS_WindU_IsbL-0450_LatLon0.15_PT186H.grib2 2026-04-12 17:00 1.1M
20260412T12Z_MSC_GDPS_WindU_IsbL-0500_LatLon0.15_PT186H.grib2 2026-04-12 17:00 1.1M
20260412T12Z_MSC_GDPS_WindU_IsbL-0550_LatLon0.15_PT186H.grib2 2026-04-12 17:00 1.1M
20260412T12Z_MSC_GDPS_WindU_IsbL-0600_LatLon0.15_PT186H.grib2 2026-04-12 17:00 1.1M
20260412T12Z_MSC_GDPS_WindU_IsbL-0650_LatLon0.15_PT186H.grib2 2026-04-12 17:00 1.2M
20260412T12Z_MSC_GDPS_WindU_IsbL-0700_LatLon0.15_PT186H.grib2 2026-04-12 17:00 1.2M
20260412T12Z_MSC_GDPS_WindU_IsbL-0750_LatLon0.15_PT186H.grib2 2026-04-12 17:00 1.3M
20260412T12Z_MSC_GDPS_WindU_IsbL-0800_LatLon0.15_PT186H.grib2 2026-04-12 17:00 1.3M
20260412T12Z_MSC_GDPS_WindU_IsbL-0850_LatLon0.15_PT186H.grib2 2026-04-12 17:00 1.4M
20260412T12Z_MSC_GDPS_WindU_IsbL-0875_LatLon0.15_PT186H.grib2 2026-04-12 17:00 1.4M
20260412T12Z_MSC_GDPS_WindU_IsbL-0900_LatLon0.15_PT186H.grib2 2026-04-12 17:00 1.5M
20260412T12Z_MSC_GDPS_WindU_IsbL-0925_LatLon0.15_PT186H.grib2 2026-04-12 17:00 1.4M
20260412T12Z_MSC_GDPS_WindU_IsbL-0950_LatLon0.15_PT186H.grib2 2026-04-12 17:00 1.4M
20260412T12Z_MSC_GDPS_WindU_IsbL-0970_LatLon0.15_PT186H.grib2 2026-04-12 17:00 1.4M
20260412T12Z_MSC_GDPS_WindU_IsbL-0985_LatLon0.15_PT186H.grib2 2026-04-12 17:00 1.4M
20260412T12Z_MSC_GDPS_WindU_IsbL-1000_LatLon0.15_PT186H.grib2 2026-04-12 17:00 1.7M
20260412T12Z_MSC_GDPS_WindU_IsbL-1015_LatLon0.15_PT186H.grib2 2026-04-12 17:00 1.6M
20260412T12Z_MSC_GDPS_WindV_AGL-10m_LatLon0.15_PT186H.grib2 2026-04-12 17:00 1.6M
20260412T12Z_MSC_GDPS_WindV_AGL-120m_LatLon0.15_PT186H.grib2 2026-04-12 17:00 972K
20260412T12Z_MSC_GDPS_WindV_AGL-40m_LatLon0.15_PT186H.grib2 2026-04-12 17:00 1.2M
20260412T12Z_MSC_GDPS_WindV_AGL-80m_LatLon0.15_PT186H.grib2 2026-04-12 17:00 972K
20260412T12Z_MSC_GDPS_WindV_IsbL-0001_LatLon0.15_PT186H.grib2 2026-04-12 17:00 692K
20260412T12Z_MSC_GDPS_WindV_IsbL-0005_LatLon0.15_PT186H.grib2 2026-04-12 17:00 770K
20260412T12Z_MSC_GDPS_WindV_IsbL-0010_LatLon0.15_PT186H.grib2 2026-04-12 17:00 621K
20260412T12Z_MSC_GDPS_WindV_IsbL-0020_LatLon0.15_PT186H.grib2 2026-04-12 17:00 847K
20260412T12Z_MSC_GDPS_WindV_IsbL-0030_LatLon0.15_PT186H.grib2 2026-04-12 17:00 848K
20260412T12Z_MSC_GDPS_WindV_IsbL-0050_LatLon0.15_PT186H.grib2 2026-04-12 17:00 898K
20260412T12Z_MSC_GDPS_WindV_IsbL-0100_LatLon0.15_PT186H.grib2 2026-04-12 17:00 838K
20260412T12Z_MSC_GDPS_WindV_IsbL-0150_LatLon0.15_PT186H.grib2 2026-04-12 17:00 1.0M
20260412T12Z_MSC_GDPS_WindV_IsbL-0175_LatLon0.15_PT186H.grib2 2026-04-12 17:00 1.0M
20260412T12Z_MSC_GDPS_WindV_IsbL-0200_LatLon0.15_PT186H.grib2 2026-04-12 17:00 1.0M
20260412T12Z_MSC_GDPS_WindV_IsbL-0225_LatLon0.15_PT186H.grib2 2026-04-12 17:00 840K
20260412T12Z_MSC_GDPS_WindV_IsbL-0250_LatLon0.15_PT186H.grib2 2026-04-12 17:00 840K
20260412T12Z_MSC_GDPS_WindV_IsbL-0275_LatLon0.15_PT186H.grib2 2026-04-12 17:00 926K
20260412T12Z_MSC_GDPS_WindV_IsbL-0300_LatLon0.15_PT186H.grib2 2026-04-12 17:00 917K
20260412T12Z_MSC_GDPS_WindV_IsbL-0350_LatLon0.15_PT186H.grib2 2026-04-12 17:00 929K
20260412T12Z_MSC_GDPS_WindV_IsbL-0400_LatLon0.15_PT186H.grib2 2026-04-12 17:00 927K
20260412T12Z_MSC_GDPS_WindV_IsbL-0450_LatLon0.15_PT186H.grib2 2026-04-12 17:00 869K
20260412T12Z_MSC_GDPS_WindV_IsbL-0500_LatLon0.15_PT186H.grib2 2026-04-12 17:00 872K
20260412T12Z_MSC_GDPS_WindV_IsbL-0550_LatLon0.15_PT186H.grib2 2026-04-12 17:00 1.1M
20260412T12Z_MSC_GDPS_WindV_IsbL-0600_LatLon0.15_PT186H.grib2 2026-04-12 17:00 1.1M
20260412T12Z_MSC_GDPS_WindV_IsbL-0650_LatLon0.15_PT186H.grib2 2026-04-12 17:00 1.1M
20260412T12Z_MSC_GDPS_WindV_IsbL-0700_LatLon0.15_PT186H.grib2 2026-04-12 17:00 1.2M
20260412T12Z_MSC_GDPS_WindV_IsbL-0750_LatLon0.15_PT186H.grib2 2026-04-12 17:00 1.2M
20260412T12Z_MSC_GDPS_WindV_IsbL-0800_LatLon0.15_PT186H.grib2 2026-04-12 17:00 1.3M
20260412T12Z_MSC_GDPS_WindV_IsbL-0850_LatLon0.15_PT186H.grib2 2026-04-12 17:00 1.4M
20260412T12Z_MSC_GDPS_WindV_IsbL-0875_LatLon0.15_PT186H.grib2 2026-04-12 17:00 1.4M
20260412T12Z_MSC_GDPS_WindV_IsbL-0900_LatLon0.15_PT186H.grib2 2026-04-12 17:00 1.5M
20260412T12Z_MSC_GDPS_WindV_IsbL-0925_LatLon0.15_PT186H.grib2 2026-04-12 17:00 1.5M
20260412T12Z_MSC_GDPS_WindV_IsbL-0950_LatLon0.15_PT186H.grib2 2026-04-12 17:00 1.4M
20260412T12Z_MSC_GDPS_WindV_IsbL-0970_LatLon0.15_PT186H.grib2 2026-04-12 17:00 1.4M
20260412T12Z_MSC_GDPS_WindV_IsbL-0985_LatLon0.15_PT186H.grib2 2026-04-12 17:00 1.4M
20260412T12Z_MSC_GDPS_WindV_IsbL-1000_LatLon0.15_PT186H.grib2 2026-04-12 17:00 1.7M
20260412T12Z_MSC_GDPS_WindV_IsbL-1015_LatLon0.15_PT186H.grib2 2026-04-12 17:00 1.6M